Time,TemperatureF,DewpointF,PressureIn,WindDirection,WindDirectionDegrees,WindSpeedMPH,WindSpeedGustMPH,Humidity,HourlyPrecipIn,Conditions,Clouds,dailyrainin,SoftwareType,DateUTC
2013-02-03 00:02:00,60.3,47.6,30.25,East,85,7.0,14.0,63,0.00,,,0.00,Wunderground v.1.15,2013-02-03 06:02:00,
2013-02-03 00:08:00,60.1,47.9,30.25,ENE,74,7.0,14.0,64,0.00,,,0.00,Wunderground v.1.15,2013-02-03 06:08:00,
2013-02-03 00:14:00,59.9,47.7,30.25,SSW,197,6.0,14.0,64,0.00,,,0.00,Wunderground v.1.15,2013-02-03 06:14:00,
2013-02-03 00:20:00,59.7,47.5,30.25,NE,56,6.0,14.0,64,0.00,,,0.00,Wunderground v.1.15,2013-02-03 06:20:00,
2013-02-03 00:26:00,59.5,47.7,30.25,ENE,78,6.0,14.0,65,0.00,,,0.00,Wunderground v.1.15,2013-02-03 06:26:00,
2013-02-03 00:32:00,59.3,47.5,30.25,ENE,70,6.0,14.0,65,0.00,,,0.00,Wunderground v.1.15,2013-02-03 06:32:00,
2013-02-03 00:38:00,59.1,47.3,30.25,ENE,74,6.0,14.0,65,0.00,,,0.00,Wunderground v.1.15,2013-02-03 06:38:00,
2013-02-03 00:44:00,59.0,47.2,30.25,SSE,163,6.0,14.0,65,0.00,,,0.00,Wunderground v.1.15,2013-02-03 06:44:00,
2013-02-03 00:50:00,58.9,47.2,30.26,ENE,68,6.0,6.0,65,0.00,,,0.00,Wunderground v.1.15,2013-02-03 06:50:00,
2013-02-03 00:56:00,58.7,47.0,30.26,NE,55,6.0,14.0,65,0.00,,,0.00,Wunderground v.1.15,2013-02-03 06:56:00,
2013-02-03 01:02:00,58.7,46.5,30.25,ENE,66,6.0,14.0,64,0.00,,,0.00,Wunderground v.1.15,2013-02-03 07:02:00,
2013-02-03 01:08:00,58.8,46.2,30.25,ENE,68,7.0,14.0,63,0.00,,,0.00,Wunderground v.1.15,2013-02-03 07:08:00,
2013-02-03 01:14:00,58.7,46.1,30.25,ENE,70,7.0,12.0,63,0.00,,,0.00,Wunderground v.1.15,2013-02-03 07:14:00,
2013-02-03 01:20:00,58.6,46.0,30.26,ENE,67,6.0,6.0,63,0.00,,,0.00,Wunderground v.1.15,2013-02-03 07:20:00,
2013-02-03 01:26:00,58.4,45.4,30.26,NE,39,6.0,12.0,62,0.00,,,0.00,Wunderground v.1.15,2013-02-03 07:26:00,
2013-02-03 01:32:00,58.3,45.3,30.25,ENE,61,6.0,12.0,62,0.00,,,0.00,Wunderground v.1.15,2013-02-03 07:32:00,
2013-02-03 01:38:00,58.0,45.0,30.26,NNE,29,6.0,12.0,62,0.00,,,0.00,Wunderground v.1.15,2013-02-03 07:38:00,
2013-02-03 01:44:00,57.8,44.9,30.26,ENE,77,6.0,12.0,62,0.00,,,0.00,Wunderground v.1.15,2013-02-03 07:44:00,
2013-02-03 01:50:00,57.6,45.1,30.26,ENE,70,5.0,5.0,63,0.00,,,0.00,Wunderground v.1.15,2013-02-03 07:50:00,
2013-02-03 01:56:00,57.5,44.6,30.26,East,79,5.0,12.0,62,0.00,,,0.00,Wunderground v.1.15,2013-02-03 07:56:00,
2013-02-03 02:02:00,57.4,44.5,30.26,ENE,74,5.0,8.0,62,0.00,,,0.00,Wunderground v.1.15,2013-02-03 08:02:00,
2013-02-03 02:08:00,57.4,44.1,30.26,ENE,70,6.0,13.0,61,0.00,,,0.00,Wunderground v.1.15,2013-02-03 08:08:00,
2013-02-03 02:14:00,57.4,43.6,30.25,ENE,60,6.0,13.0,60,0.00,,,0.00,Wunderground v.1.15,2013-02-03 08:14:00,
2013-02-03 02:20:00,57.4,43.6,30.25,NNE,22,6.0,13.0,60,0.00,,,0.00,Wunderground v.1.15,2013-02-03 08:20:00,
2013-02-03 02:26:00,57.3,43.1,30.25,NE,47,6.0,13.0,59,0.00,,,0.00,Wunderground v.1.15,2013-02-03 08:26:00,
2013-02-03 02:32:00,57.2,43.4,30.25,NE,46,6.0,13.0,60,0.00,,,0.00,Wunderground v.1.15,2013-02-03 08:32:00,
2013-02-03 02:38:00,56.9,43.2,30.25,ENE,63,7.0,13.0,60,0.00,,,0.00,Wunderground v.1.15,2013-02-03 08:38:00,
2013-02-03 02:44:00,56.6,43.3,30.25,ENE,68,6.0,13.0,61,0.00,,,0.00,Wunderground v.1.15,2013-02-03 08:44:00,
2013-02-03 02:50:00,56.5,43.2,30.25,ENE,60,5.0,5.0,61,0.00,,,0.00,Wunderground v.1.15,2013-02-03 08:50:00,
2013-02-03 02:56:00,56.4,42.7,30.25,NE,44,6.0,13.0,60,0.00,,,0.00,Wunderground v.1.15,2013-02-03 08:56:00,
2013-02-03 03:02:00,56.2,42.5,30.25,ENE,62,6.0,13.0,60,0.00,,,0.00,Wunderground v.1.15,2013-02-03 09:02:00,
2013-02-03 03:08:00,56.1,42.4,30.25,NE,55,6.0,13.0,60,0.00,,,0.00,Wunderground v.1.15,2013-02-03 09:08:00,
2013-02-03 03:14:00,55.9,41.8,30.25,NE,40,5.0,12.0,59,0.00,,,0.00,Wunderground v.1.15,2013-02-03 09:14:00,
2013-02-03 03:20:00,55.8,41.7,30.25,NE,46,5.0,12.0,59,0.00,,,0.00,Wunderground v.1.15,2013-02-03 09:20:00,
2013-02-03 03:26:00,55.8,41.7,30.25,ENE,75,5.0,12.0,59,0.00,,,0.00,Wunderground v.1.15,2013-02-03 09:26:00,
2013-02-03 03:32:00,55.6,41.5,30.25,East,84,4.0,12.0,59,0.00,,,0.00,Wunderground v.1.15,2013-02-03 09:32:00,
2013-02-03 03:38:00,55.4,41.3,30.25,NE,50,4.0,12.0,59,0.00,,,0.00,Wunderground v.1.15,2013-02-03 09:38:00,
2013-02-03 03:44:00,55.2,41.1,30.26,NE,50,4.0,12.0,59,0.00,,,0.00,Wunderground v.1.15,2013-02-03 09:44:00,
2013-02-03 03:50:00,55.0,40.9,30.26,NE,49,3.0,3.0,59,0.00,,,0.00,Wunderground v.1.15,2013-02-03 09:50:00,
2013-02-03 03:56:00,54.9,40.8,30.26,NE,52,3.0,12.0,59,0.00,,,0.00,Wunderground v.1.15,2013-02-03 09:56:00,
2013-02-03 04:02:00,54.7,41.1,30.25,ENE,60,4.0,12.0,60,0.00,,,0.00,Wunderground v.1.15,2013-02-03 10:02:00,
2013-02-03 04:08:00,54.6,40.6,30.26,ENE,72,4.0,12.0,59,0.00,,,0.00,Wunderground v.1.15,2013-02-03 10:08:00,
2013-02-03 04:14:00,54.6,40.6,30.26,NE,42,4.0,8.0,59,0.00,,,0.00,Wunderground v.1.15,2013-02-03 10:14:00,
2013-02-03 04:20:00,54.6,40.6,30.25,ENE,70,5.0,5.0,59,0.00,,,0.00,Wunderground v.1.15,2013-02-03 10:20:00,
2013-02-03 04:26:00,54.5,40.5,30.25,NE,50,5.0,8.0,59,0.00,,,0.00,Wunderground v.1.15,2013-02-03 10:26:00,
2013-02-03 04:32:00,54.4,40.4,30.26,NE,47,4.0,8.0,59,0.00,,,0.00,Wunderground v.1.15,2013-02-03 10:32:00,
2013-02-03 04:38:00,54.4,40.4,30.26,East,82,4.0,8.0,59,0.00,,,0.00,Wunderground v.1.15,2013-02-03 10:38:00,
2013-02-03 04:44:00,54.3,39.8,30.26,NNE,30,5.0,8.0,58,0.00,,,0.00,Wunderground v.1.15,2013-02-03 10:44:00,
2013-02-03 04:50:00,54.3,39.8,30.26,NNE,32,4.0,4.0,58,0.00,,,0.00,Wunderground v.1.15,2013-02-03 10:50:00,
2013-02-03 04:56:00,54.2,39.7,30.26,East,82,4.0,8.0,58,0.00,,,0.00,Wunderground v.1.15,2013-02-03 10:56:00,
2013-02-03 05:02:00,54.2,39.7,30.26,ENE,61,3.0,5.0,58,0.00,,,0.00,Wunderground v.1.15,2013-02-03 11:02:00,
2013-02-03 05:08:00,54.1,39.6,30.26,East,81,3.0,9.0,58,0.00,,,0.00,Wunderground v.1.15,2013-02-03 11:08:00,
2013-02-03 05:14:00,54.1,39.6,30.26,ENE,75,3.0,9.0,58,0.00,,,0.00,Wunderground v.1.15,2013-02-03 11:14:00,
2013-02-03 05:20:00,54.1,39.6,30.26,ENE,67,2.0,9.0,58,0.00,,,0.00,Wunderground v.1.15,2013-02-03 11:20:00,
2013-02-03 05:26:00,54.2,39.7,30.26,ENE,65,3.0,9.0,58,0.00,,,0.00,Wunderground v.1.15,2013-02-03 11:26:00,
2013-02-03 05:32:00,54.4,39.5,30.26,East,85,4.0,9.0,57,0.00,,,0.00,Wunderground v.1.15,2013-02-03 11:32:00,
2013-02-03 05:38:00,54.6,39.2,30.26,NE,51,4.0,9.0,56,0.00,,,0.00,Wunderground v.1.15,2013-02-03 11:38:00,
2013-02-03 05:44:00,54.8,39.4,30.26,NE,49,4.0,9.0,56,0.00,,,0.00,Wunderground v.1.15,2013-02-03 11:44:00,
2013-02-03 05:50:00,54.9,39.5,30.26,ENE,78,4.0,9.0,56,0.00,,,0.00,Wunderground v.1.15,2013-02-03 11:50:00,
2013-02-03 05:56:00,55.1,39.2,30.26,East,84,4.0,9.0,55,0.00,,,0.00,Wunderground v.1.15,2013-02-03 11:56:00,
2013-02-03 06:02:00,55.3,39.4,30.26,ENE,74,5.0,10.0,55,0.00,,,0.00,Wunderground v.1.15,2013-02-03 12:02:00,
2013-02-03 06:08:00,55.3,39.4,30.26,ENE,77,4.0,10.0,55,0.00,,,0.00,Wunderground v.1.15,2013-02-03 12:08:00,
2013-02-03 06:14:00,55.4,39.0,30.27,ENE,67,4.0,10.0,54,0.00,,,0.00,Wunderground v.1.15,2013-02-03 12:14:00,
2013-02-03 06:20:00,55.3,38.9,30.27,ENE,61,3.0,10.0,54,0.00,,,0.00,Wunderground v.1.15,2013-02-03 12:20:00,
2013-02-03 06:26:00,55.3,38.9,30.27,East,96,4.0,10.0,54,0.00,,,0.00,Wunderground v.1.15,2013-02-03 12:26:00,
2013-02-03 06:32:00,55.3,38.9,30.27,ENE,68,4.0,10.0,54,0.00,,,0.00,Wunderground v.1.15,2013-02-03 12:32:00,
2013-02-03 06:38:00,55.3,38.9,30.27,East,85,5.0,10.0,54,0.00,,,0.00,Wunderground v.1.15,2013-02-03 12:38:00,
2013-02-03 06:44:00,55.3,38.9,30.27,East,92,5.0,10.0,54,0.00,,,0.00,Wunderground v.1.15,2013-02-03 12:44:00,
2013-02-03 06:50:00,55.2,38.8,30.27,ENE,63,4.0,10.0,54,0.00,,,0.00,Wunderground v.1.15,2013-02-03 12:50:00,
2013-02-03 06:56:00,55.1,38.7,30.27,ENE,62,4.0,10.0,54,0.00,,,0.00,Wunderground v.1.15,2013-02-03 12:56:00,
2013-02-03 07:02:00,55.1,38.7,30.27,ENE,67,5.0,12.0,54,0.00,,,0.00,Wunderground v.1.15,2013-02-03 13:02:00,
2013-02-03 07:08:00,55.0,38.6,30.27,ENE,66,5.0,12.0,54,0.00,,,0.00,Wunderground v.1.15,2013-02-03 13:08:00,
2013-02-03 07:14:00,55.1,38.3,30.27,ENE,63,5.0,12.0,53,0.00,,,0.00,Wunderground v.1.15,2013-02-03 13:14:00,
2013-02-03 07:20:00,55.0,38.2,30.27,ENE,70,5.0,12.0,53,0.00,,,0.00,Wunderground v.1.15,2013-02-03 13:20:00,
2013-02-03 07:26:00,55.1,38.3,30.28,NE,50,5.0,12.0,53,0.00,,,0.00,Wunderground v.1.15,2013-02-03 13:26:00,
2013-02-03 07:32:00,55.1,38.3,30.28,NE,46,5.0,12.0,53,0.00,,,0.00,Wunderground v.1.15,2013-02-03 13:32:00,
2013-02-03 07:38:00,55.2,38.4,30.28,ENE,72,5.0,12.0,53,0.00,,,0.00,Wunderground v.1.15,2013-02-03 13:38:00,
2013-02-03 07:44:00,55.2,38.8,30.28,East,82,5.0,12.0,54,0.00,,,0.00,Wunderground v.1.15,2013-02-03 13:44:00,
2013-02-03 07:50:00,55.2,38.8,30.28,ESE,105,4.0,4.0,54,0.00,,,0.00,Wunderground v.1.15,2013-02-03 13:50:00,
2013-02-03 07:56:00,55.1,38.7,30.28,East,80,4.0,12.0,54,0.00,,,0.00,Wunderground v.1.15,2013-02-03 13:56:00,
2013-02-03 08:02:00,55.0,38.6,30.29,NE,56,4.0,11.0,54,0.00,,,0.00,Wunderground v.1.15,2013-02-03 14:02:00,
2013-02-03 08:08:00,55.0,38.6,30.29,ENE,74,4.0,11.0,54,0.00,,,0.00,Wunderground v.1.15,2013-02-03 14:08:00,
2013-02-03 08:14:00,55.0,38.6,30.28,East,84,5.0,11.0,54,0.00,,,0.00,Wunderground v.1.15,2013-02-03 14:14:00,
2013-02-03 08:20:00,55.1,38.7,30.29,ENE,67,5.0,11.0,54,0.00,,,0.00,Wunderground v.1.15,2013-02-03 14:20:00,
2013-02-03 08:26:00,55.2,38.8,30.29,ENE,64,5.0,11.0,54,0.00,,,0.00,Wunderground v.1.15,2013-02-03 14:26:00,
2013-02-03 08:32:00,55.5,38.6,30.29,ENE,61,5.0,11.0,53,0.00,,,0.00,Wunderground v.1.15,2013-02-03 14:32:00,
2013-02-03 08:38:00,55.7,38.8,30.29,East,97,5.0,11.0,53,0.00,,,0.00,Wunderground v.1.15,2013-02-03 14:38:00,
2013-02-03 08:44:00,55.9,39.0,30.29,NE,46,5.0,11.0,53,0.00,,,0.00,Wunderground v.1.15,2013-02-03 14:44:00,
2013-02-03 08:50:00,56.3,38.9,30.29,ESE,110,5.0,5.0,52,0.00,,,0.00,Wunderground v.1.15,2013-02-03 14:50:00,
2013-02-03 08:56:00,56.9,38.9,30.29,East,85,5.0,11.0,51,0.00,,,0.00,Wunderground v.1.15,2013-02-03 14:56:00,
2013-02-03 09:02:00,57.5,39.0,30.29,ENE,76,5.0,13.0,50,0.00,,,0.00,Wunderground v.1.15,2013-02-03 15:02:00,
2013-02-03 09:08:00,58.0,38.9,30.29,ENE,74,5.0,13.0,49,0.00,,,0.00,Wunderground v.1.15,2013-02-03 15:08:00,
2013-02-03 09:14:00,58.6,38.4,30.29,ENE,72,5.0,13.0,47,0.00,,,0.00,Wunderground v.1.15,2013-02-03 15:14:00,
2013-02-03 09:20:00,59.1,38.9,30.29,East,82,5.0,13.0,47,0.00,,,0.00,Wunderground v.1.15,2013-02-03 15:20:00,
2013-02-03 09:26:00,59.6,38.2,30.29,ENE,73,5.0,13.0,45,0.00,,,0.00,Wunderground v.1.15,2013-02-03 15:26:00,
2013-02-03 09:32:00,59.5,38.7,30.30,ENE,77,6.0,13.0,46,0.00,,,0.00,Wunderground v.1.15,2013-02-03 15:32:00,
2013-02-03 09:38:00,60.1,38.1,30.30,ESE,104,5.0,13.0,44,0.00,,,0.00,Wunderground v.1.15,2013-02-03 15:38:00,
2013-02-03 09:44:00,60.4,37.8,30.30,ENE,60,6.0,13.0,43,0.00,,,0.00,Wunderground v.1.15,2013-02-03 15:44:00,
2013-02-03 09:50:00,60.4,37.8,30.30,ESE,111,6.0,13.0,43,0.00,,,0.00,Wunderground v.1.15,2013-02-03 15:50:00,
2013-02-03 09:56:00,60.3,37.7,30.30,East,91,6.0,13.0,43,0.00,,,0.00,Wunderground v.1.15,2013-02-03 15:56:00,
2013-02-03 10:02:00,60.8,38.1,30.30,NE,48,5.0,14.0,43,0.00,,,0.00,Wunderground v.1.15,2013-02-03 16:02:00,
2013-02-03 10:08:00,60.6,37.4,30.30,SE,142,5.0,14.0,42,0.00,,,0.00,Wunderground v.1.15,2013-02-03 16:08:00,
2013-02-03 10:14:00,60.3,37.1,30.30,SE,141,6.0,14.0,42,0.00,,,0.00,Wunderground v.1.15,2013-02-03 16:14:00,
2013-02-03 10:20:00,60.2,37.0,30.31,ESE,108,6.0,14.0,42,0.00,,,0.00,Wunderground v.1.15,2013-02-03 16:20:00,
2013-02-03 10:26:00,60.3,37.1,30.30,ENE,65,6.0,14.0,42,0.00,,,0.00,Wunderground v.1.15,2013-02-03 16:26:00,
2013-02-03 10:32:00,60.5,37.9,30.30,ESE,121,5.0,14.0,43,0.00,,,0.00,Wunderground v.1.15,2013-02-03 16:32:00,
2013-02-03 10:38:00,61.0,37.7,30.30,East,80,4.0,14.0,42,0.00,,,0.00,Wunderground v.1.15,2013-02-03 16:38:00,
2013-02-03 10:44:00,61.2,37.3,30.30,ESE,108,5.0,14.0,41,0.00,,,0.00,Wunderground v.1.15,2013-02-03 16:44:00,
2013-02-03 10:50:00,61.3,37.4,30.30,East,79,5.0,5.0,41,0.00,,,0.00,Wunderground v.1.15,2013-02-03 16:50:00,
2013-02-03 10:56:00,61.5,36.9,30.29,East,97,6.0,14.0,40,0.00,,,0.00,Wunderground v.1.15,2013-02-03 16:56:00,
2013-02-03 11:02:00,61.8,37.2,30.29,ESE,102,5.0,14.0,40,0.00,,,0.00,Wunderground v.1.15,2013-02-03 17:02:00,
2013-02-03 11:08:00,62.2,37.6,30.29,ENE,75,6.0,14.0,40,0.00,,,0.00,Wunderground v.1.15,2013-02-03 17:08:00,
2013-02-03 11:14:00,62.6,37.9,30.29,East,82,5.0,13.0,40,0.00,,,0.00,Wunderground v.1.15,2013-02-03 17:14:00,
2013-02-03 11:20:00,63.1,38.4,30.28,ENE,62,6.0,13.0,40,0.00,,,0.00,Wunderground v.1.15,2013-02-03 17:20:00,
2013-02-03 11:26:00,63.4,38.6,30.28,ENE,72,6.0,13.0,40,0.00,,,0.00,Wunderground v.1.15,2013-02-03 17:26:00,
2013-02-03 11:32:00,63.7,38.3,30.27,ESE,109,6.0,13.0,39,0.00,,,0.00,Wunderground v.1.15,2013-02-03 17:32:00,
2013-02-03 11:38:00,63.9,38.4,30.27,ESE,110,6.0,13.0,39,0.00,,,0.00,Wunderground v.1.15,2013-02-03 17:38:00,
2013-02-03 11:44:00,64.3,38.1,30.27,East,83,6.0,13.0,38,0.00,,,0.00,Wunderground v.1.15,2013-02-03 17:44:00,
2013-02-03 11:50:00,64.7,38.5,30.27,ESE,105,6.0,6.0,38,0.00,,,0.00,Wunderground v.1.15,2013-02-03 17:50:00,
2013-02-03 11:56:00,64.9,39.3,30.26,ENE,77,5.0,13.0,39,0.00,,,0.00,Wunderground v.1.15,2013-02-03 17:56:00,
2013-02-03 12:02:00,65.2,39.6,30.26,SE,129,5.0,6.0,39,0.00,,,0.00,Wunderground v.1.15,2013-02-03 18:02:00,
2013-02-03 12:08:00,65.2,40.3,30.26,NE,47,5.0,13.0,40,0.00,,,0.00,Wunderground v.1.15,2013-02-03 18:08:00,
2013-02-03 12:14:00,65.3,39.7,30.25,East,89,4.0,13.0,39,0.00,,,0.00,Wunderground v.1.15,2013-02-03 18:14:00,
2013-02-03 12:20:00,65.7,41.3,30.25,ESE,107,5.0,13.0,41,0.00,,,0.00,Wunderground v.1.15,2013-02-03 18:20:00,
2013-02-03 12:26:00,65.8,40.8,30.25,East,86,5.0,13.0,40,0.00,,,0.00,Wunderground v.1.15,2013-02-03 18:26:00,
2013-02-03 12:32:00,65.7,40.7,30.24,ENE,70,4.0,13.0,40,0.00,,,0.00,Wunderground v.1.15,2013-02-03 18:32:00,
2013-02-03 12:38:00,66.3,40.6,30.23,East,84,4.0,13.0,39,0.00,,,0.00,Wunderground v.1.15,2013-02-03 18:38:00,
2013-02-03 12:44:00,66.8,41.7,30.23,ESE,113,4.0,13.0,40,0.00,,,0.00,Wunderground v.1.15,2013-02-03 18:44:00,
2013-02-03 12:50:00,67.4,42.9,30.22,South,169,5.0,5.0,41,0.00,,,0.00,Wunderground v.1.15,2013-02-03 18:50:00,
2013-02-03 12:56:00,67.5,43.0,30.22,East,96,5.0,13.0,41,0.00,,,0.00,Wunderground v.1.15,2013-02-03 18:56:00,
2013-02-03 13:02:00,67.1,42.6,30.21,East,82,4.0,13.0,41,0.00,,,0.00,Wunderground v.1.15,2013-02-03 19:02:00,
2013-02-03 13:08:00,68.0,44.0,30.21,SE,135,5.0,13.0,42,0.00,,,0.00,Wunderground v.1.15,2013-02-03 19:08:00,
2013-02-03 13:14:00,67.9,42.7,30.20,ESE,110,5.0,12.0,40,0.00,,,0.00,Wunderground v.1.15,2013-02-03 19:14:00,
2013-02-03 13:20:00,68.3,44.9,30.20,SE,146,5.0,5.0,43,0.00,,,0.00,Wunderground v.1.15,2013-02-03 19:20:00,
2013-02-03 13:26:00,68.1,43.5,30.19,East,82,4.0,12.0,41,0.00,,,0.00,Wunderground v.1.15,2013-02-03 19:26:00,
2013-02-03 13:32:00,68.1,43.5,30.18,ESE,109,3.0,12.0,41,0.00,,,0.00,Wunderground v.1.15,2013-02-03 19:32:00,
2013-02-03 13:38:00,68.8,44.1,30.18,East,87,4.0,12.0,41,0.00,,,0.00,Wunderground v.1.15,2013-02-03 19:38:00,
2013-02-03 13:44:00,69.2,44.5,30.17,ESE,117,3.0,12.0,41,0.00,,,0.00,Wunderground v.1.15,2013-02-03 19:44:00,
2013-02-03 13:50:00,69.5,44.8,30.17,SE,133,4.0,4.0,41,0.00,,,0.00,Wunderground v.1.15,2013-02-03 19:50:00,
2013-02-03 13:56:00,69.6,45.5,30.16,SE,146,4.0,12.0,42,0.00,,,0.00,Wunderground v.1.15,2013-02-03 19:56:00,
2013-02-03 14:02:00,69.6,46.1,30.16,SSE,160,5.0,11.0,43,0.00,,,0.00,Wunderground v.1.15,2013-02-03 20:02:00,
2013-02-03 14:08:00,70.1,46.6,30.16,NE,51,3.0,11.0,43,0.00,,,0.00,Wunderground v.1.15,2013-02-03 20:08:00,
2013-02-03 14:14:00,70.3,46.7,30.16,SSE,148,4.0,11.0,43,0.00,,,0.00,Wunderground v.1.15,2013-02-03 20:14:00,
2013-02-03 14:20:00,69.9,47.0,30.15,ESE,115,4.0,11.0,44,0.00,,,0.00,Wunderground v.1.15,2013-02-03 20:20:00,
2013-02-03 14:26:00,70.0,47.1,30.15,SE,124,3.0,11.0,44,0.00,,,0.00,Wunderground v.1.15,2013-02-03 20:26:00,
2013-02-03 14:32:00,70.3,46.7,30.15,SE,145,5.0,11.0,43,0.00,,,0.00,Wunderground v.1.15,2013-02-03 20:32:00,
2013-02-03 14:38:00,70.5,46.9,30.14,SE,135,5.0,11.0,43,0.00,,,0.00,Wunderground v.1.15,2013-02-03 20:38:00,
2013-02-03 14:44:00,70.9,47.3,30.13,SE,139,4.0,11.0,43,0.00,,,0.00,Wunderground v.1.15,2013-02-03 20:44:00,
2013-02-03 14:50:00,70.6,47.6,30.13,SW,222,4.0,4.0,44,0.00,,,0.00,Wunderground v.1.15,2013-02-03 20:50:00,
2013-02-03 14:56:00,70.7,48.3,30.13,SSE,158,4.0,11.0,45,0.00,,,0.00,Wunderground v.1.15,2013-02-03 20:56:00,
2013-02-03 15:02:00,70.4,48.6,30.12,ENE,71,4.0,14.0,46,0.00,,,0.00,Wunderground v.1.15,2013-02-03 21:02:00,
2013-02-03 15:08:00,69.9,48.2,30.12,ESE,121,3.0,14.0,46,0.00,,,0.00,Wunderground v.1.15,2013-02-03 21:08:00,
2013-02-03 15:14:00,70.4,48.0,30.11,SE,129,4.0,14.0,45,0.00,,,0.00,Wunderground v.1.15,2013-02-03 21:14:00,
2013-02-03 15:20:00,70.6,48.2,30.11,SE,146,5.0,14.0,45,0.00,,,0.00,Wunderground v.1.15,2013-02-03 21:20:00,
2013-02-03 15:26:00,70.5,48.1,30.11,ESE,103,6.0,14.0,45,0.00,,,0.00,Wunderground v.1.15,2013-02-03 21:26:00,
2013-02-03 15:32:00,70.2,47.9,30.11,WSW,243,6.0,14.0,45,0.00,,,0.00,Wunderground v.1.15,2013-02-03 21:32:00,
2013-02-03 15:38:00,69.9,48.2,30.10,SE,124,6.0,14.0,46,0.00,,,0.00,Wunderground v.1.15,2013-02-03 21:38:00,
2013-02-03 15:44:00,70.0,48.3,30.10,SE,143,4.0,14.0,46,0.00,,,0.00,Wunderground v.1.15,2013-02-03 21:44:00,
2013-02-03 15:50:00,69.8,48.1,30.10,SSE,150,4.0,14.0,46,0.00,,,0.00,Wunderground v.1.15,2013-02-03 21:50:00,
2013-02-03 15:56:00,69.3,48.2,30.09,SE,141,5.0,14.0,47,0.00,,,0.00,Wunderground v.1.15,2013-02-03 21:56:00,
2013-02-03 16:02:00,69.1,48.6,30.10,SE,139,5.0,12.0,48,0.00,,,0.00,Wunderground v.1.15,2013-02-03 22:02:00,
2013-02-03 16:08:00,69.0,48.5,30.10,SSW,204,6.0,12.0,48,0.00,,,0.00,Wunderground v.1.15,2013-02-03 22:08:00,
2013-02-03 16:14:00,69.3,48.2,30.09,SSE,156,6.0,12.0,47,0.00,,,0.00,Wunderground v.1.15,2013-02-03 22:14:00,
2013-02-03 16:20:00,69.4,48.3,30.09,SSW,205,7.0,7.0,47,0.00,,,0.00,Wunderground v.1.15,2013-02-03 22:20:00,
2013-02-03 16:26:00,69.1,48.6,30.09,South,173,8.0,12.0,48,0.00,,,0.00,Wunderground v.1.15,2013-02-03 22:26:00,
2013-02-03 16:32:00,69.0,47.9,30.09,South,170,6.0,12.0,47,0.00,,,0.00,Wunderground v.1.15,2013-02-03 22:32:00,
2013-02-03 16:38:00,69.0,48.5,30.09,ESE,114,5.0,12.0,48,0.00,,,0.00,Wunderground v.1.15,2013-02-03 22:38:00,
2013-02-03 16:44:00,68.9,48.4,30.09,SE,141,4.0,12.0,48,0.00,,,0.00,Wunderground v.1.15,2013-02-03 22:44:00,
2013-02-03 16:50:00,68.9,48.4,30.09,South,180,5.0,12.0,48,0.00,,,0.00,Wunderground v.1.15,2013-02-03 22:50:00,
2013-02-03 16:56:00,68.7,48.2,30.08,SE,133,5.0,12.0,48,0.00,,,0.00,Wunderground v.1.15,2013-02-03 22:56:00,
2013-02-03 17:02:00,68.6,48.1,30.08,SE,136,4.0,11.0,48,0.00,,,0.00,Wunderground v.1.15,2013-02-03 23:02:00,
2013-02-03 17:08:00,68.6,48.7,30.08,ENE,70,2.0,11.0,49,0.00,,,0.00,Wunderground v.1.15,2013-02-03 23:08:00,
2013-02-03 17:14:00,68.6,48.7,30.07,East,87,3.0,11.0,49,0.00,,,0.00,Wunderground v.1.15,2013-02-03 23:14:00,
2013-02-03 17:20:00,68.4,48.5,30.07,ENE,76,3.0,11.0,49,0.00,,,0.00,Wunderground v.1.15,2013-02-03 23:20:00,
2013-02-03 17:26:00,68.3,48.9,30.07,SE,141,4.0,11.0,50,0.00,,,0.00,Wunderground v.1.15,2013-02-03 23:26:00,
2013-02-03 17:32:00,68.2,48.8,30.07,ENE,75,3.0,11.0,50,0.00,,,0.00,Wunderground v.1.15,2013-02-03 23:32:00,
2013-02-03 17:38:00,68.2,48.8,30.07,SE,139,3.0,11.0,50,0.00,,,0.00,Wunderground v.1.15,2013-02-03 23:38:00,
2013-02-03 17:44:00,68.0,48.7,30.07,East,86,4.0,11.0,50,0.00,,,0.00,Wunderground v.1.15,2013-02-03 23:44:00,
2013-02-03 17:50:00,67.9,48.6,30.06,SE,128,3.0,3.0,50,0.00,,,0.00,Wunderground v.1.15,2013-02-03 23:50:00,
2013-02-03 17:56:00,67.7,48.4,30.06,ESE,114,2.0,11.0,50,0.00,,,0.00,Wunderground v.1.15,2013-02-03 23:56:00,
2013-02-03 18:02:00,67.5,48.2,30.06,ENE,69,3.0,8.0,50,0.00,,,0.00,Wunderground v.1.15,2013-02-04 00:02:00,
2013-02-03 18:08:00,67.3,48.0,30.06,SSE,152,3.0,8.0,50,0.00,,,0.00,Wunderground v.1.15,2013-02-04 00:08:00,
2013-02-03 18:14:00,67.2,48.5,30.06,ESE,117,3.0,8.0,51,0.00,,,0.00,Wunderground v.1.15,2013-02-04 00:14:00,
2013-02-03 18:20:00,67.0,48.3,30.05,SE,146,2.0,8.0,51,0.00,,,0.00,Wunderground v.1.15,2013-02-04 00:20:00,
2013-02-03 18:26:00,66.8,48.6,30.05,ESE,117,3.0,8.0,52,0.00,,,0.00,Wunderground v.1.15,2013-02-04 00:26:00,
2013-02-03 18:32:00,66.7,48.5,30.05,SSE,149,2.0,8.0,52,0.00,,,0.00,Wunderground v.1.15,2013-02-04 00:32:00,
2013-02-03 18:38:00,66.6,48.4,30.06,SE,144,2.0,8.0,52,0.00,,,0.00,Wunderground v.1.15,2013-02-04 00:38:00,
2013-02-03 18:44:00,66.6,48.9,30.06,ESE,106,2.0,8.0,53,0.00,,,0.00,Wunderground v.1.15,2013-02-04 00:44:00,
2013-02-03 18:50:00,66.4,48.7,30.06,ESE,115,2.0,2.0,53,0.00,,,0.00,Wunderground v.1.15,2013-02-04 00:50:00,
2013-02-03 18:56:00,66.3,48.7,30.06,ENE,75,2.0,8.0,53,0.00,,,0.00,Wunderground v.1.15,2013-02-04 00:56:00,
2013-02-03 19:02:00,66.2,48.6,30.05,ESE,112,2.0,3.0,53,0.00,,,0.00,Wunderground v.1.15,2013-02-04 01:02:00,
2013-02-03 19:08:00,66.0,48.4,30.05,East,97,3.0,5.0,53,0.00,,,0.00,Wunderground v.1.15,2013-02-04 01:08:00,
2013-02-03 19:14:00,65.8,48.7,30.05,ESE,103,3.0,5.0,54,0.00,,,0.00,Wunderground v.1.15,2013-02-04 01:14:00,
2013-02-03 19:20:00,65.6,48.5,30.05,SE,132,3.0,5.0,54,0.00,,,0.00,Wunderground v.1.15,2013-02-04 01:20:00,
2013-02-03 19:26:00,65.4,48.3,30.05,SE,124,3.0,5.0,54,0.00,,,0.00,Wunderground v.1.15,2013-02-04 01:26:00,
2013-02-03 19:32:00,65.3,48.2,30.04,East,96,3.0,5.0,54,0.00,,,0.00,Wunderground v.1.15,2013-02-04 01:32:00,
2013-02-03 19:38:00,65.2,48.1,30.04,ESE,114,3.0,5.0,54,0.00,,,0.00,Wunderground v.1.15,2013-02-04 01:38:00,
2013-02-03 19:44:00,65.0,48.4,30.04,ESE,122,3.0,5.0,55,0.00,,,0.00,Wunderground v.1.15,2013-02-04 01:44:00,
2013-02-03 19:50:00,64.9,48.3,30.04,ENE,68,3.0,3.0,55,0.00,,,0.00,Wunderground v.1.15,2013-02-04 01:50:00,
2013-02-03 19:56:00,64.8,48.2,30.05,SE,129,2.0,5.0,55,0.00,,,0.00,Wunderground v.1.15,2013-02-04 01:56:00,
2013-02-03 20:02:00,64.7,48.2,30.04,SE,128,3.0,7.0,55,0.00,,,0.00,Wunderground v.1.15,2013-02-04 02:02:00,
2013-02-03 20:08:00,64.7,48.6,30.04,ESE,113,2.0,7.0,56,0.00,,,0.00,Wunderground v.1.15,2013-02-04 02:08:00,
2013-02-03 20:14:00,64.5,48.4,30.05,SE,128,3.0,7.0,56,0.00,,,0.00,Wunderground v.1.15,2013-02-04 02:14:00,
2013-02-03 20:20:00,64.3,48.3,30.04,ESE,117,2.0,7.0,56,0.00,,,0.00,Wunderground v.1.15,2013-02-04 02:20:00,
2013-02-03 20:26:00,64.1,48.5,30.04,SE,135,3.0,7.0,57,0.00,,,0.00,Wunderground v.1.15,2013-02-04 02:26:00,
2013-02-03 20:32:00,63.9,48.4,30.04,ENE,77,4.0,7.0,57,0.00,,,0.00,Wunderground v.1.15,2013-02-04 02:32:00,
2013-02-03 20:38:00,63.9,50.2,30.04,ESE,117,6.0,8.0,61,0.00,,,0.00,Wunderground v.1.15,2013-02-04 02:38:00,
2013-02-03 20:44:00,63.7,50.4,30.04,SE,138,7.0,8.0,62,0.00,,,0.00,Wunderground v.1.15,2013-02-04 02:44:00,
2013-02-03 20:50:00,63.5,51.1,30.04,SE,143,6.0,6.0,64,0.00,,,0.00,Wunderground v.1.15,2013-02-04 02:50:00,
2013-02-03 20:56:00,63.3,51.7,30.03,ESE,117,5.0,8.0,66,0.00,,,0.00,Wunderground v.1.15,2013-02-04 02:56:00,
2013-02-03 21:02:00,63.1,52.8,30.03,SSE,151,7.0,12.0,69,0.00,,,0.00,Wunderground v.1.15,2013-02-04 03:02:00,
2013-02-03 21:08:00,63.0,53.4,30.03,SE,139,8.0,12.0,71,0.00,,,0.00,Wunderground v.1.15,2013-02-04 03:08:00,
2013-02-03 21:14:00,62.9,53.7,30.02,SE,127,7.0,12.0,72,0.00,,,0.00,Wunderground v.1.15,2013-02-04 03:14:00,
2013-02-03 21:20:00,62.8,54.0,30.01,ESE,103,6.0,12.0,73,0.00,,,0.00,Wunderground v.1.15,2013-02-04 03:20:00,
2013-02-03 21:26:00,62.7,54.3,30.00,SE,131,8.0,13.0,74,0.00,,,0.00,Wunderground v.1.15,2013-02-04 03:26:00,
2013-02-03 21:32:00,62.5,54.5,30.01,SSE,152,8.0,12.0,75,0.00,,,0.00,Wunderground v.1.15,2013-02-04 03:32:00,
2013-02-03 21:38:00,62.4,54.4,30.02,SSE,155,8.0,12.0,75,0.00,,,0.00,Wunderground v.1.15,2013-02-04 03:38:00,
2013-02-03 21:44:00,62.3,54.3,30.01,South,177,8.0,12.0,75,0.00,,,0.00,Wunderground v.1.15,2013-02-04 03:44:00,
2013-02-03 21:50:00,62.2,54.5,30.02,SSE,156,8.0,12.0,76,0.00,,,0.00,Wunderground v.1.15,2013-02-04 03:50:00,
2013-02-03 21:56:00,62.0,54.3,30.02,SSE,153,8.0,12.0,76,0.00,,,0.00,Wunderground v.1.15,2013-02-04 03:56:00,
2013-02-03 22:02:00,61.9,54.2,30.02,SE,146,7.0,16.0,76,0.00,,,0.00,Wunderground v.1.15,2013-02-04 04:02:00,
2013-02-03 22:08:00,61.7,54.1,30.01,SE,141,7.0,16.0,76,0.00,,,0.00,Wunderground v.1.15,2013-02-04 04:08:00,
2013-02-03 22:14:00,61.6,54.0,30.01,SSE,150,6.0,16.0,76,0.00,,,0.00,Wunderground v.1.15,2013-02-04 04:14:00,
2013-02-03 22:20:00,61.4,54.1,30.00,SE,146,6.0,16.0,77,0.00,,,0.00,Wunderground v.1.15,2013-02-04 04:20:00,
2013-02-03 22:26:00,61.2,53.9,30.00,ESE,113,6.0,16.0,77,0.00,,,0.00,Wunderground v.1.15,2013-02-04 04:26:00,
2013-02-03 22:32:00,61.0,53.7,30.00,ESE,117,6.0,16.0,77,0.00,,,0.00,Wunderground v.1.15,2013-02-04 04:32:00,
2013-02-03 22:38:00,60.8,53.9,30.00,South,169,7.0,16.0,78,0.00,,,0.00,Wunderground v.1.15,2013-02-04 04:38:00,
2013-02-03 22:44:00,60.6,53.7,30.00,SSE,153,7.0,16.0,78,0.00,,,0.00,Wunderground v.1.15,2013-02-04 04:44:00,
2013-02-03 22:50:00,60.4,53.5,30.00,SE,139,7.0,16.0,78,0.00,,,0.00,Wunderground v.1.15,2013-02-04 04:50:00,
2013-02-03 22:56:00,60.3,53.8,30.00,SE,139,7.0,16.0,79,0.00,,,0.00,Wunderground v.1.15,2013-02-04 04:56:00,
2013-02-03 23:04:00,60.0,53.8,30.00,South,187,6.0,14.0,80,0.00,,,0.00,Wunderground v.1.15,2013-02-04 05:04:00,
2013-02-03 23:06:00,60.0,53.8,30.01,SSE,153,6.0,14.0,80,0.00,,,0.00,Wunderground v.1.15,2013-02-04 05:06:00,
2013-02-03 23:08:00,59.9,53.7,30.01,SSE,148,6.0,14.0,80,0.00,,,0.00,Wunderground v.1.15,2013-02-04 05:08:00,
2013-02-03 23:10:00,59.9,53.7,30.01,SE,136,6.0,14.0,80,0.00,,,0.00,Wunderground v.1.15,2013-02-04 05:10:00,
2013-02-03 23:16:00,59.8,54.0,30.01,South,170,6.0,14.0,81,0.00,,,0.00,Wunderground v.1.15,2013-02-04 05:16:00,
2013-02-03 23:22:00,59.7,53.9,30.01,SSE,156,7.0,14.0,81,0.00,,,0.00,Wunderground v.1.15,2013-02-04 05:22:00,
2013-02-03 23:28:00,59.6,54.1,30.00,SE,146,7.0,14.0,82,0.00,,,0.00,Wunderground v.1.15,2013-02-04 05:28:00,
2013-02-03 23:34:00,59.5,54.0,30.00,SSE,166,6.0,14.0,82,0.00,,,0.00,Wunderground v.1.15,2013-02-04 05:34:00,
2013-02-03 23:40:00,59.4,54.2,30.00,SSE,149,6.0,6.0,83,0.00,,,0.00,Wunderground v.1.15,2013-02-04 05:40:00,
2013-02-03 23:46:00,59.2,54.0,30.00,SSE,160,6.0,14.0,83,0.00,,,0.00,Wunderground v.1.15,2013-02-04 05:46:00,
2013-02-03 23:52:00,59.1,53.9,30.00,ESE,120,5.0,14.0,83,0.00,,,0.00,Wunderground v.1.15,2013-02-04 05:52:00,
2013-02-03 23:58:00,58.9,54.1,30.00,SSE,159,5.0,14.0,84,0.00,,,0.00,Wunderground v.1.15,2013-02-04 05:58:00,